TimeAKST,TemperatureF,Dew PointF,Humidity,Sea Level PressureIn,VisibilityMPH,Wind Direction,Wind SpeedMPH,Gust SpeedMPH,PrecipitationIn,Events,Conditions,WindDirDegrees,DateUTC
12:53 AM,27.0,17.1,66,29.31,10.0,East,6.9,-,N/A,,Overcast,80,2013-02-23 09:53:00
1:53 AM,28.0,16.0,61,29.28,10.0,ENE,9.2,-,N/A,,Overcast,60,2013-02-23 10:53:00
2:53 AM,28.0,17.1,63,29.22,10.0,ENE,15.0,-,N/A,,Overcast,60,2013-02-23 11:53:00
3:53 AM,28.9,12.9,51,29.18,10.0,NE,12.7,-,N/A,,Overcast,50,2013-02-23 12:53:00
4:53 AM,30.0,17.1,59,29.13,10.0,ENE,13.8,-,N/A,,Overcast,60,2013-02-23 13:53:00
5:53 AM,30.9,18.0,59,29.11,10.0,NE,10.4,-,N/A,,Mostly Cloudy,50,2013-02-23 14:53:00
6:53 AM,33.1,21.9,64,29.08,10.0,East,24.2,29.9,N/A,,Overcast,90,2013-02-23 15:53:00
7:53 AM,33.1,24.1,70,29.08,10.0,East,18.4,25.3,N/A,,Overcast,100,2013-02-23 16:53:00
8:53 AM,33.1,25.0,72,29.07,10.0,East,15.0,-,N/A,,Overcast,90,2013-02-23 17:53:00
9:53 AM,33.1,23.0,66,29.07,10.0,NE,4.6,-,0.00,,Mostly Cloudy,50,2013-02-23 18:53:00
10:53 AM,34.0,23.0,64,29.08,10.0,NE,3.5,-,0.00,Snow,Light Snow,50,2013-02-23 19:53:00
11:53 AM,34.0,28.0,79,29.09,5.0,Calm,Calm,-,0.00,Snow,Light Snow,0,2013-02-23 20:53:00
12:23 PM,33.8,28.4,81,29.10,0.8,Calm,Calm,-,0.01,Snow,Light Snow,0,2013-02-23 21:23:00
12:30 PM,33.8,28.4,81,29.10,1.0,Calm,Calm,-,0.01,Snow,Light Snow,0,2013-02-23 21:30:00
12:53 PM,32.0,30.0,92,29.11,1.0,Calm,Calm,-,0.04,Snow,Light Snow,0,2013-02-23 21:53:00
1:53 PM,33.1,30.0,89,29.12,1.0,Calm,Calm,-,0.04,Snow,Light Snow,0,2013-02-23 22:53:00
2:53 PM,33.1,30.9,92,29.13,1.5,Calm,Calm,-,0.02,Snow,Light Snow,0,2013-02-23 23:53:00
3:31 PM,33.8,30.2,87,29.14,0.8,Calm,Calm,-,0.02,Snow,Light Snow,0,2013-02-24 00:31:00
3:51 PM,33.8,30.2,87,29.15,1.0,Calm,Calm,-,0.03,Snow,Light Snow,0,2013-02-24 00:51:00
3:53 PM,34.0,30.9,89,29.15,1.0,Calm,Calm,-,0.03,Snow,Light Snow,0,2013-02-24 00:53:00
4:10 PM,33.8,30.2,87,29.16,1.5,SW,4.6,-,0.00,Snow,Light Snow,230,2013-02-24 01:10:00
4:51 PM,33.8,28.4,81,29.17,3.0,WSW,5.8,-,0.02,Snow,Light Snow,240,2013-02-24 01:51:00
4:53 PM,33.1,28.9,85,29.18,3.0,SW,6.9,-,0.02,Snow,Light Snow,230,2013-02-24 01:53:00
5:53 PM,32.0,27.0,82,29.21,5.0,Calm,Calm,-,0.00,Snow,Light Snow,0,2013-02-24 02:53:00
6:53 PM,30.9,27.0,85,29.22,10.0,Calm,Calm,-,0.00,,Mostly Cloudy,0,2013-02-24 03:53:00
7:53 PM,28.0,25.0,88,29.25,10.0,Calm,Calm,-,N/A,Fog,Patches of Fog,0,2013-02-24 04:53:00
8:53 PM,25.0,21.9,88,29.26,10.0,NE,3.5,-,N/A,Fog,Patches of Fog,40,2013-02-24 05:53:00
9:53 PM,26.1,23.0,88,29.27,10.0,NNE,4.6,-,N/A,,Scattered Clouds,30,2013-02-24 06:53:00
10:53 PM,30.0,27.0,88,29.28,10.0,ENE,6.9,-,N/A,,Overcast,60,2013-02-24 07:53:00
11:29 PM,30.2,28.4,93,29.29,2.5,Calm,Calm,-,0.00,Snow,Light Snow,0,2013-02-24 08:29:00
11:37 PM,30.2,28.4,93,29.29,1.2,Calm,Calm,-,0.00,Snow,Light Snow,0,2013-02-24 08:37:00
11:45 PM,30.2,28.4,93,29.29,3.0,North,3.5,-,0.00,Snow,Light Snow,10,2013-02-24 08:45:00
11:53 PM,30.0,27.0,88,29.29,9.0,NNE,4.6,-,0.00,,Overcast,20,2013-02-24 08:53:00